Location: Young's Pond
(41.2695°N, 72.7766°W)
Time: 09:59:37
(UTC-05:00)

Spot 4 - Visible Passes

Search period start: 02 March 2015 00:00
Search period end: 12 March 2015 01:00
Orbit: 706 x 724 km, 98.4° (Epoch: 01 March)

Date Brightness Start Highest point End Pass type
(mag) Time Alt. Az. Time Alt. Az. Time Alt. Az.
09 Mar 6.5 21:46:23 10° N 21:46:23 10° N 21:46:28 10° N visible
10 Mar 6.8 22:33:32 10° NNW 22:33:32 10° NNW 22:33:37 10° NNW visible
11 Mar 6.4 21:41:31 11° NNE 21:41:31 11° NNE 21:41:46 10° N visible
